64013000, 5301503, 2016-11-16 00:00:00, 13.35780, 109.26660,   0,  11,   2, -5.00, 1012.70, 15.00, 0,   8, 255, 0.000
64013000, 5301503, 2016-11-16 01:00:00, 13.35780, 109.26660,   0,  11,   1, -5.00, 1013.10, 15.00, 1,   9, 255, 0.000
64013000, 5301503, 2016-11-16 02:00:00, 13.35780, 109.26660,   0,  11,   1, -5.00, 1013.30, 15.00, 0,  23, 255, 0.000
64013000, 5301503, 2016-11-16 03:00:00, 13.35760, 109.26660,   0,  10,   1, -5.00, 1013.70, 15.00, 1,   9, 255, 0.000
64013000, 5301503, 2016-11-16 04:00:00, 13.35760, 109.26660,   0,  11,   1, -5.00, 1013.40, 15.00, 2,   8, 255, 0.000
64013000, 5301503, 2016-11-16 05:00:00, 13.35780, 109.26660,   0,  10,   1, -5.00, 1012.70, 15.00, 1,  10, 255, 0.000
64013000, 5301503, 2016-11-16 06:00:00, 13.35760, 109.26660,   0,  11,   1, -5.00, 1011.80, 15.00, 1,   9, 255, 0.000
64013000, 5301503, 2016-11-16 07:00:00, 13.35780, 109.26660,   0,  11,   1, -5.00, 1011.10, 15.00, 0,   8, 255, 0.000
64013000, 5301503, 2016-11-16 08:00:00, 13.35780, 109.26660,   0,  11,   1, -5.00, 1010.70, 15.00, 3,  10, 255, 0.000
64013000, 5301503, 2016-11-16 09:00:00, 13.35780, 109.26660,   0,  12,   1, -5.00, 1010.70, 15.00, 1,  17, 255, 0.000
64013000, 5301503, 2016-11-16 10:00:00, 13.35780, 109.26660,   0,  12,   1, -5.00, 1010.80, 15.00, 1,  13, 255, 0.000
64013000, 5301503, 2016-11-16 11:00:00, 13.35780, 109.26660,   0,  11,   1, -5.00, 1010.80, 15.00, 0,  11, 255, 0.000
64013000, 5301503, 2016-11-16 12:00:00, 13.35780, 109.26660,   0,  11,   1, -5.00, 1011.50, 15.00, 1,  10, 255, 0.000
64013000, 5301503, 2016-11-16 13:00:00, 13.35780, 109.26660,   0,  12,   1, -5.00, 1012.00, 15.00, 0,   8, 255, 0.000
64013000, 5301503, 2016-11-16 14:00:00, 13.35780, 109.26660,   0,  12,   1, -5.00, 1012.10, 15.00, 1,   1, 255, 0.000
64013000, 5301503, 2016-11-16 15:00:00, 13.35780, 109.26660,   0,  12,   1, -5.00, 1012.30, 15.00, 0,  11, 255, 0.000
64013000, 5301503, 2016-11-16 16:00:00, 13.35780, 109.26660,   0,  12,   1, -5.00, 1012.00, 15.00, 0,  18, 255, 0.000
64013000, 5301503, 2016-11-16 17:00:00, 13.35780, 109.26660,   0,  10,   1, -5.00, 1011.70, 15.00, 0,   7, 255, 0.000
64013000, 5301503, 2016-11-16 18:00:00, 13.35760, 109.26660,   0,  11,   1, -5.00, 1011.10, 15.00, 0,   9, 255, 0.000
64013000, 5301503, 2016-11-16 19:00:00, 13.35760, 109.26660,   0,  11,   1, -5.00, 1010.60, 15.00, 1,  10, 255, 0.000
64013000, 5301503, 2016-11-16 20:00:00, 13.35760, 109.26660,   0,  10,   1, -5.00, 1010.30, 15.00, 1,  10, 255, 0.000
64013000, 5301503, 2016-11-16 21:00:00, 13.35780, 109.26660,   0,  12,   1, -5.00, 1010.10, 15.00, 1,   7, 255, 0.000
64013000, 5301503, 2016-11-16 22:00:00, 13.35760, 109.26660,   0,  12,   1, -5.00, 1010.60, 15.00, 1,  10, 255, 0.000
64013000, 5301503, 2016-11-16 23:00:00, 13.35780, 109.26660,   0,  11,   1, -5.00, 1011.00, 15.00, 0,  15, 255, 0.000
64013000, 5301503, 2016-11-17 00:00:00, 13.35780, 109.26660,   0,  10,   1, -5.00, 1011.70, 15.00, 1,   8, 255, 0.000
64013000, 5301503, 2016-11-17 01:00:00, 13.35780, 109.26660,   0,  12,   1, -5.00, 1012.20, 15.00, 1,   8, 255, 0.000
64013000, 5301503, 2016-11-17 02:00:00, 13.35780, 109.26660,   0,  12,   1, -5.00, 1012.40, 15.00, 1,   9, 255, 0.000
64013000, 5301503, 2016-11-17 03:00:00, 13.35780, 109.26660,   0,  11,   1, -5.00, 1012.30, 15.00, 0,  10, 255, 0.000
64013000, 5301503, 2016-11-17 04:00:00, 13.35760, 109.26660,   0,  11,   1, -5.00, 1011.90, 15.00, 0,  11, 255, 0.000
64013000, 5301503, 2016-11-17 05:00:00, 13.35780, 109.26660,   0,  12,   1, -5.00, 1011.10, 15.00, 0,  11, 255, 0.000
64013000, 5301503, 2016-11-17 06:00:00, 13.35760, 109.26660,   0,  11,   1, -5.00, 1010.20, 15.00, 1,  10, 255, 0.000
64013000, 5301503, 2016-11-17 07:00:00, 13.35760, 109.26660,   0,  12,   1, -5.00, 1010.00, 15.00, 1,   9, 255, 0.000
64013000, 5301503, 2016-11-17 08:00:00, 13.35780, 109.26660,   0,  11,   1, -5.00, 1010.00, 15.00, 1,  11, 255, 0.000
64013000, 5301503, 2016-11-17 09:00:00, 13.35780, 109.26660,   0,  12,   1, -5.00, 1009.30, 15.00, 1,  12, 255, 0.000
64013000, 5301503, 2016-11-17 10:00:00, 13.35780, 109.26660,   0,  12,   1, -5.00, 1009.10, 15.00, 1,   9, 255, 0.000
64013000, 5301503, 2016-11-17 11:00:00, 13.35780, 109.26660,   0,  11,   1, -5.00, 1009.50, 15.00, 0,   7, 255, 0.000
64013000, 5301503, 2016-11-17 12:00:00, 13.35760, 109.26660,   0,  11,   1, -5.00, 1010.00, 15.00, 0,   8, 255, 0.000
64013000, 5301503, 2016-11-17 13:00:00, 13.35760, 109.26660,   0,  11,   1, -5.00, 1010.50, 15.00, 0,   9, 255, 0.000
64013000, 5301503, 2016-11-17 14:00:00, 13.35780, 109.26660,   0,  12,   1, -5.00, 1010.70, 15.00, 0,  11, 255, 0.000
64013000, 5301503, 2016-11-17 15:00:00, 13.35780, 109.26660,   0,  12,   1, -5.00, 1011.00, 15.00, 0,   4, 255, 0.000
64013000, 5301503, 2016-11-17 16:00:00, 13.35780, 109.26660,   0,  12,   1, -5.00, 1010.70, 15.00, 1,  12, 255, 0.000
64013000, 5301503, 2016-11-17 17:00:00, 13.35780, 109.26660,   0,  10,   1, -5.00, 1010.30, 15.00, 0,  10, 255, 0.000
64013000, 5301503, 2016-11-17 18:00:00, 13.35780, 109.26660,   0,  11,   1, -5.00, 1009.50, 15.00, 1,  13, 255, 0.000
64013000, 5301503, 2016-11-17 19:00:00, 13.35760, 109.26660,   0,  11,   1, -5.00, 1009.10, 15.00, 0,   9, 255, 0.000
64013000, 5301503, 2016-11-17 20:00:00, 13.35780, 109.26660,   0,  11,   1, -5.00, 1008.70, 15.00, 0,   1, 255, 0.000
64013000, 5301503, 2016-11-17 21:00:00, 13.35780, 109.26660,   0,  12,   1, -5.00, 1008.70, 15.00, 0,  11, 255, 0.000
64013000, 5301503, 2016-11-17 22:00:00, 13.35760, 109.26660,   0,  12,   1, -5.00, 1009.10, 15.00, 0,   8, 255, 0.000
64013000, 5301503, 2016-11-17 23:00:00, 13.35760, 109.26660,   0,  11,   2, -5.00, 1009.60, 15.00, 7,   1, 255, 0.000
64013000, 5301503, 2016-11-18 00:00:00, 13.35760, 109.26660,   0,  10,   1, -5.00, 1009.90, 15.00, 1,  11, 255, 0.000
64013000, 5301503, 2016-11-18 01:00:00, 13.35760, 109.26660,   0,  10,   1, -5.00, 1010.50, 15.00, 1,   9, 255, 0.000
64013000, 5301503, 2016-11-18 02:00:00, 13.35760, 109.26660,   0,  10,   1, -5.00, 1011.00, 15.00, 1,  10, 255, 0.000
64013000, 5301503, 2016-11-18 03:00:00, 13.35760, 109.26660,   0,  11,   1, -5.00, 1011.20, 15.00, 1,   7, 255, 0.000
64013000, 5301503, 2016-11-18 04:00:00, 13.35760, 109.26660,   0,  11,   1, -5.00, 1010.30, 15.00, 1,  12, 255, 0.000
64013000, 5301503, 2016-11-18 05:00:00, 13.35760, 109.26660,   0,  10,   1, -5.00, 1009.50, 15.00, 1,   8, 255, 0.000
64013000, 5301503, 2016-11-18 06:00:00, 13.35760, 109.26660,   0,  11,   1, -5.00, 1008.80, 15.00, 0,  10, 255, 0.000
64013000, 5301503, 2016-11-18 07:00:00, 13.35760, 109.26660,   0,  11,   1, -5.00, 1008.20, 15.00, 0,  10, 255, 0.000
64013000, 5301503, 2016-11-18 08:00:00, 13.35760, 109.26660,   0,  11,   1, -5.00, 1007.80, 15.00, 1,  10, 255, 0.000
64013000, 5301503, 2016-11-18 09:00:00, 13.35760, 109.26660,   0,  11,   1, -5.00, 1007.80, 15.00, 0,  13, 255, 0.000
64013000, 5301503, 2016-11-18 10:00:00, 13.35760, 109.26660,   0,  11,   1, -5.00, 1008.30, 15.00, 0,   9, 255, 0.000
64013000, 5301503, 2016-11-18 11:00:00, 13.35760, 109.26660,   0,  11,   1, -5.00, 1008.60, 15.00, 0,  14, 255, 0.000
64013000, 5301503, 2016-11-18 12:00:00, 13.35760, 109.26660,   0,  10,   1, -5.00, 1009.00, 15.00, 0,   8, 255, 0.000
64013000, 5301503, 2016-11-18 13:00:00, 13.35760, 109.26660,   0,  11,   1, -5.00, 1009.80, 15.00, 0,   8, 255, 0.000
64013000, 5301503, 2016-11-18 14:00:00, 13.35760, 109.26660,   0,  11,   1, -5.00, 1010.20, 15.00, 1,  11, 255, 0.000
64013000, 5301503, 2016-11-18 15:00:00, 13.35760, 109.26660,   0,  11,   1, -5.00, 1010.10, 15.00, 0,   7, 255, 0.000
64013000, 5301503, 2016-11-18 16:00:00, 13.35760, 109.26660,   0,  11,   1, -5.00, 1010.30, 15.00, 0,  12, 255, 0.000
64013000, 5301503, 2016-11-18 17:00:00, 13.35780, 109.26660,   0,  11,   1, -5.00, 1010.20, 15.00, 1,  15, 255, 0.000
64013000, 5301503, 2016-11-18 18:00:00, 13.35760, 109.26660,   0,  11,   1, -5.00, 1009.80, 15.00, 1,   8, 255, 0.000
64013000, 5301503, 2016-11-18 19:00:00, 13.35760, 109.26660,   0,  10,   1, -5.00, 1008.40, 15.00, 0,  10, 255, 0.000
64013000, 5301503, 2016-11-18 20:00:00, 13.35760, 109.26660,   0,  11,   1, -5.00, 1008.40, 15.00, 0,   6, 255, 0.000
64013000, 5301503, 2016-11-18 21:00:00, 13.35760, 109.26660,   0,  11,   1, -5.00, 1008.40, 15.00, 0,   7, 255, 0.000
64013000, 5301503, 2016-11-18 22:00:00, 13.35760, 109.26660,   0,  11,   1, -5.00, 1008.50, 15.00, 0,   7, 255, 0.000
64013000, 5301503, 2016-11-18 23:00:00, 13.35760, 109.26660,   0,  12,   1, -5.00, 1008.80, 15.00, 0,  11, 255, 0.000
64013000, 5301503, 2016-11-19 00:00:00, 13.35780, 109.26660,   0,  11,   2, -5.00, 1009.50, 15.00, 1,  10, 255, 0.000
64013000, 5301503, 2016-11-19 01:00:00, 13.35760, 109.26660,   0,  11,   1, -5.00, 1010.20, 15.00, 1,  10, 255, 0.000
64013000, 5301503, 2016-11-19 02:00:00, 13.35760, 109.26660,   0,  11,   1, -5.00, 1010.60, 15.00, 1,  11, 255, 0.000
64013000, 5301503, 2016-11-19 03:00:00, 13.35760, 109.26660,   0,  11,   1, -5.00, 1010.20, 15.00, 1,  11, 255, 0.000
64013000, 5301503, 2016-11-19 04:00:00, 13.35760, 109.26660,   0,  11,   1, -5.00, 1009.70, 15.00, 0,  11, 255, 0.000
64013000, 5301503, 2016-11-19 05:00:00, 13.35760, 109.26660,   0,  11,   1, -5.00, 1009.20, 15.00, 0,  13, 255, 0.000
64013000, 5301503, 2016-11-19 06:00:00, 13.35760, 109.26660,   0,  11,   1, -5.00, 1008.40, 15.00, 1,   8, 255, 0.000
64013000, 5301503, 2016-11-19 07:00:00, 13.35760, 109.26660,   0,  11,   1, -5.00, 1007.80, 15.00, 0,   8, 255, 0.000
64015370, 5301502, 2016-11-16 00:00:00, 18.78440, 113.01720,   0,  11,  10, 27.39, 1014.40, 14.80, 6,  11, 255, 0.000
64015370, 5301502, 2016-11-16 01:00:00, 18.78380, 113.00600,   0,  10,   8, 27.42, 1015.00, 14.80, 8,  11, 255, 0.000
64015370, 5301502, 2016-11-16 02:00:00, 18.78380, 113.00600,  60,  10,  12, 27.43, 1015.40, 14.80, 9,  11, 255, 0.000
64015370, 5301502, 2016-11-16 03:00:00, 18.78380, 113.00600, 120,  10,  12, 27.44, 1015.50, 14.80, 6,  14, 255, 0.000
64015370, 5301502, 2016-11-16 04:00:00, 18.78240, 112.96980,   0,  11,   7, 27.46, 1014.80, 14.80, 9,  10, 255, 0.000
64015370, 5301502, 2016-11-16 05:00:00, 18.78100, 112.95720,   0,  11,   9, 27.47, 1014.10, 14.80, 8,   9, 255, 0.000
64015370, 5301502, 2016-11-16 06:00:00, 18.78100, 112.95720,  60,  10,  12, 27.49, 1013.10, 14.80, 7,  11, 255, 0.000
64015370, 5301502, 2016-11-16 07:00:00, 18.78100, 112.95720, 120,  10,  12, 27.49, 1012.70, 14.80, 8,  10, 255, 0.000
64015370, 5301502, 2016-11-16 08:00:00, 18.78280, 112.91840,   0,  10,   7, 27.48, 1012.70, 14.80, 10,  10, 255, 0.000
64015370, 5301502, 2016-11-16 09:00:00, 18.78460, 112.90940,   0,  11,   7, 27.47, 1012.70, 14.80, 7,  12, 255, 0.000
64015370, 5301502, 2016-11-16 10:00:00, 18.78620, 112.90000,   0,  11,   7, 27.46, 1013.30, 14.80, 6,  16, 255, 0.000
64015370, 5301502, 2016-11-16 11:00:00, 18.78720, 112.89200,   0,  12,   7, 27.45, 1013.50, 14.80, 10,   9, 255, 0.000
64015370, 5301502, 2016-11-16 12:00:00, 18.78780, 112.88180,   0,  11,   7, 27.44, 1013.90, 14.80, 7,  10, 255, 0.000
64015370, 5301502, 2016-11-16 13:00:00, 18.79120, 112.86940,   0,  10,   2, 27.43, 1014.30, 14.80, 7,   7, 255, 0.000
64015370, 5301502, 2016-11-16 14:00:00, 18.79660, 112.85680,   0,  11,   9, 27.43, 1014.30, 14.80, 7,  10, 255, 0.000
64015370, 5301502, 2016-11-16 15:00:00, 18.80180, 112.84620,   0,  10,   5, 27.42, 1014.10, 14.80, 5,   9, 255, 0.000
64015370, 5301502, 2016-11-16 16:00:00, 18.80180, 112.84620,  62,  11,  12, 27.42, 1013.80, 14.80, 7,  14, 255, 0.000
64015370, 5301502, 2016-11-16 17:00:00, 18.81060, 112.82580,   0,  11,   9, 27.41, 1013.40, 14.80, 7,  13, 255, 0.000
64015370, 5301502, 2016-11-16 18:00:00, 18.81360, 112.81500,   0,  10,   7, 27.40, 1013.20, 14.80, 5,  11, 255, 0.000
64015370, 5301502, 2016-11-16 19:00:00, 18.81360, 112.81500,  61,   9,  12, 27.40, 1013.00, 14.80, 6,  11, 255, 0.000
64015370, 5301502, 2016-11-16 20:00:00, 18.82340, 112.79140,   0,  11,   9, 27.40, 1012.70, 14.80, 6,  15, 255, 0.000
64015370, 5301502, 2016-11-16 21:00:00, 18.82880, 112.78420,   0,  11,   8, 27.39, 1012.50, 14.80, 8,  11, 255, 0.000
64015370, 5301502, 2016-11-16 22:00:00, 18.83260, 112.77820,   0,  10,   8, 27.38, 1012.80, 14.80, 8,   9, 255, 0.000
64015370, 5301502, 2016-11-16 23:00:00, 18.83520, 112.77320,   0,  10,   8, 27.36, 1013.00, 14.80, 7,  16, 255, 0.000
64015370, 5301502, 2016-11-17 00:00:00, 18.83520, 112.77320,  60,  11,  12, 27.36, 1013.60, 14.80, 8,  10, 255, 0.000
64015370, 5301502, 2016-11-17 01:00:00, 18.83520, 112.77320, 120,  10,  12, 27.35, 1014.30, 14.80, 8,   7, 255, 0.000
64015370, 5301502, 2016-11-17 02:00:00, 18.83760, 112.75740,   0,  10,   5, 27.37, 1014.50, 14.80, 11,  12, 255, 0.000
64015370, 5301502, 2016-11-17 03:00:00, 18.83780, 112.74780,   0,  10,   9, 27.35, 1014.20, 14.80, 7,   8, 255, 0.000
64015370, 5301502, 2016-11-17 04:00:00, 18.83640, 112.73780,   0,  11,   7, 27.39, 1013.40, 14.80, 8,  13, 255, 0.000
64015370, 5301502, 2016-11-17 05:00:00, 18.83560, 112.72520,   0,  11,  10, 27.40, 1012.80, 14.80, 6,  17, 255, 0.000
64015370, 5301502, 2016-11-17 06:00:00, 18.83320, 112.71500,   0,  10,  11, 27.41, 1012.20, 14.80, 8,  16, 255, 0.000
64015370, 5301502, 2016-11-17 07:00:00, 18.83020, 112.70240,   0,  10,   5, 27.41, 1011.70, 14.80, 8,  16, 255, 0.000
64015370, 5301502, 2016-11-17 08:00:00, 18.82760, 112.69060,   0,  11,   6, 27.36, 1011.80, 14.80, 8,  11, 255, 0.000
64015370, 5301502, 2016-11-17 09:00:00, 18.82720, 112.67800,   0,  10,   5, 27.38, 1011.90, 14.80, 8,  22, 255, 0.000
64015370, 5301502, 2016-11-17 10:00:00, 18.82760, 112.66420,   0,  11,   5, 27.37, 1011.90, 14.80, 8,   8, 255, 0.000
64015370, 5301502, 2016-11-17 11:00:00, 18.82900, 112.65020,   0,  11,  10, 27.37, 1012.10, 14.80, 7,   8, 255, 0.000
64015370, 5301502, 2016-11-17 12:00:00, 18.83100, 112.63580,   0,  11,   8, 27.36, 1012.40, 14.80, 6,  25, 255, 0.000
64015370, 5301502, 2016-11-17 13:00:00, 18.83260, 112.62360,   0,  10,   7, 27.35, 1012.70, 14.80, 8,   9, 255, 0.000
64015370, 5301502, 2016-11-17 14:00:00, 18.83300, 112.61420,   0,  11,   6, 27.36, 1012.80, 14.80, 7,   1, 255, 0.000
64015370, 5301502, 2016-11-17 15:00:00, 18.83200, 112.60480,   0,  10,   6, 27.36, 1012.70, 14.80, 7,   9, 255, 0.000
64015370, 5301502, 2016-11-17 16:00:00, 18.82880, 112.59820,   0,  11,   5, 27.37, 1012.20, 14.80, 10,  11, 255, 0.000
64015370, 5301502, 2016-11-17 17:00:00, 18.82560, 112.58880,   0,  11,   4, 27.36, 1011.90, 14.80, 6,  10, 255, 0.000
64015370, 5301502, 2016-11-17 18:00:00, 18.82340, 112.57600,   0,  11,   7, 27.34, 1011.30, 14.80, 7,  11, 255, 0.000
64015370, 5301502, 2016-11-17 19:00:00, 18.82240, 112.56120,   0,  11,   8, 27.33, 1010.80, 14.80, 6,   1, 255, 0.000
64015370, 5301502, 2016-11-17 20:00:00, 18.82200, 112.54900,   0,  11,   9, 27.35, 1010.40, 14.80, 7,  20, 255, 0.000
64015370, 5301502, 2016-11-17 21:00:00, 18.82200, 112.54900,  60,  11,  12, 27.34, 1010.30, 14.80, 9,  11, 255, 0.000
64015370, 5301502, 2016-11-17 22:00:00, 18.82300, 112.52340,   0,  10,   2, 27.33, 1010.80, 14.80, 6,   7, 255, 0.000
64015370, 5301502, 2016-11-17 23:00:00, 18.82460, 112.51120,   0,  10,  10, 27.33, 1011.40, 14.80, 7,  10, 255, 0.000
64015370, 5301502, 2016-11-18 00:00:00, 18.82460, 112.51120,  60,  10,  12, 27.33, 1011.80, 14.80, 8,   8, 255, 0.000
64015370, 5301502, 2016-11-18 01:00:00, 18.82900, 112.48680,   0,  10,   9, 27.34, 1012.20, 14.80, 7,   8, 255, 0.000
64015370, 5301502, 2016-11-18 02:00:00, 18.83220, 112.47380,   0,  10,   4, 27.38, 1012.50, 14.80, 7,  19, 255, 0.000
64015370, 5301502, 2016-11-18 03:00:00, 18.83500, 112.46380,   0,  10,   6, 27.40, 1012.30, 14.80, 7,  10, 255, 0.000
64015370, 5301502, 2016-11-18 04:00:00, 18.83580, 112.45560,   0,  10,   8, 27.45, 1011.70, 14.80, 5,  11, 255, 0.000
64015370, 5301502, 2016-11-18 05:00:00, 18.83480, 112.44940,   0,  11,   7, 27.49, 1010.80, 14.80, 6,  10, 255, 0.000
64015370, 5301502, 2016-11-18 06:00:00, 18.83140, 112.44240,   0,  11,   8, 27.53, 1010.40, 14.80, 7,  19, 255, 0.000
64015370, 5301502, 2016-11-18 07:00:00, 18.82880, 112.43360,   0,  10,   3, 27.55, 1009.90, 14.80, 12,  13, 255, 0.000
64015370, 5301502, 2016-11-18 08:00:00, 18.82940, 112.42020,   0,  10,   4, 27.54, 1009.90, 14.80, 9,  14, 255, 0.000
64015370, 5301502, 2016-11-18 09:00:00, 18.82900, 112.41040,   0,  10,   8, 27.54, 1009.70, 14.80, 5,   9, 255, 0.000
64015370, 5301502, 2016-11-18 10:00:00, 18.83100, 112.39720,   0,  11,   6, 27.53, 1009.80, 14.80, 7,   8, 255, 0.000
64015370, 5301502, 2016-11-18 11:00:00, 18.83360, 112.38700,   0,  12,   6, 27.50, 1010.00, 14.80, 6,  18, 255, 0.000
64015370, 5301502, 2016-11-18 12:00:00, 18.83460, 112.37840,   0,  11,   7, 27.49, 1010.50, 14.80, 6,  12, 255, 0.000
64015370, 5301502, 2016-11-18 13:00:00, 18.83480, 112.36940,   0,  11,   8, 27.48, 1011.10, 14.80, 6,  21, 255, 0.000
64015370, 5301502, 2016-11-18 14:00:00, 18.83580, 112.35920,   0,  11,   6, 27.47, 1011.30, 14.80, 6,  11, 255, 0.000
64015370, 5301502, 2016-11-18 15:00:00, 18.83560, 112.35160,   0,  10,   8, 27.45, 1011.10, 14.80, 5,  12, 255, 0.000
64015370, 5301502, 2016-11-18 16:00:00, 18.83400, 112.34240,   0,  11,   4, 27.45, 1010.80, 14.80, 6,  11, 255, 0.000
64015370, 5301502, 2016-11-18 17:00:00, 18.83080, 112.33340,   0,  11,   8, 27.44, 1010.40, 14.80, 5,  10, 255, 0.000
64015370, 5301502, 2016-11-18 18:00:00, 18.82880, 112.32220,   0,  11,   7, 27.40, 1009.80, 14.80, 5,  11, 255, 0.000
64015370, 5301502, 2016-11-18 19:00:00, 18.82300, 112.31400,   0,  11,   7, 27.43, 1009.60, 14.80, 6,   9, 255, 0.000
64015370, 5301502, 2016-11-18 20:00:00, 18.81640, 112.30400,   0,  11,   9, 27.41, 1009.40, 14.80, 5,  14, 255, 0.000
64015370, 5301502, 2016-11-18 21:00:00, 18.80960, 112.29500,   0,  10,   7, 27.42, 1009.30, 14.80, 7,  12, 255, 0.000
64015370, 5301502, 2016-11-18 22:00:00, 18.80280, 112.28560,   0,  10,   7, 27.39, 1009.70, 14.80, 5,  22, 255, 0.000
64015370, 5301502, 2016-11-18 23:00:00, 18.79720, 112.27420,   0,  10,   9, 27.42, 1010.30, 14.80, 7,  11, 255, 0.000
64015370, 5301502, 2016-11-19 00:00:00, 18.79400, 112.26040,   0,  10,   5, 27.42, 1010.80, 14.80, 4,  11, 255, 0.000
64015370, 5301502, 2016-11-19 01:00:00, 18.79340, 112.24340,   0,  10,   5, 27.43, 1011.30, 14.80, 7,  10, 255, 0.000
64015370, 5301502, 2016-11-19 02:00:00, 18.79260, 112.22920,   0,  10,   5, 27.46, 1011.50, 14.80, 6,   9, 255, 0.000
64015370, 5301502, 2016-11-19 03:00:00, 18.79200, 112.21440,   0,  10,   4, 27.50, 1011.50, 14.80, 6,  14, 255, 0.000
64015370, 5301502, 2016-11-19 04:00:00, 18.78980, 112.20100,   0,  11,   8, 27.56, 1010.80, 14.80, 8,  11, 255, 0.000
64015370, 5301502, 2016-11-19 05:00:00, 18.78680, 112.18820,   0,  11,   2, 27.60, 1010.00, 14.80, 6,   9, 255, 0.000
64015370, 5301502, 2016-11-19 06:00:00, 18.78300, 112.17400,   0,  11,   8, 27.67, 1009.30, 14.80, 5,  11, 255, 0.000
64015370, 5301502, 2016-11-19 07:00:00, 18.77680, 112.16300,   0,  11,   5, 27.68, 1008.70, 14.80, 7,  11, 255, 0.000
